FENGYUN 1C DEB

Satellite information

Favourite Embed

Satellite Type and Status

DEBRISIN ORBIT

Key statistics

Satellite FENGYUN 1C DEB at a glance.

Uptime

9659

Days in orbit

Revolutions

≈ 14.2

Per day

Orbit

SSO

Sun Synchronous Orbit

Inclination

98.9

Latest

Satellite identification and parameters

Extended collection of information and parameters for FENGYUN 1C DEB.

Object identification

Identified? True

Debris? True

Object name: FENGYUN 1C DEB

International designator: 1999-025AZD

Object number (NORAD): 30915

Object ID (CCSDS): 30915

Country: PEOPLES REPUBLIC OF CHINA (PRC)

Current information (Y/N): Y

RCS size: SMALL

Orbital parameters

Period: 101.09 minutes

Inclination: 98.9456 deg

SMA: 7188.379 km

Apoapsis: 847.047 km

Periapsis: 773.442 km

RAAN: 7.0935 deg

Eccentricy: 0.00511972

Argument of periapsis: 325.4003 deg

Mean anomaly: 34.3847 deg

Mean motion: 14.24479777 rev/day

Mean motion (dot): 0.00005482 rev/day2

B* drag term: 0.0023522047 1/REarth

Two-line elements (TLE)

Creation date: Oct. 19, 2025, 2:20 a.m.

Reference frame: TEME

Reference center: EARTH

Epoch: Oct. 18, 2025, 10:11 p.m. UTC

TLE line 0: 0 FENGYUN 1C DEB

TLE line 1: 1 30915U 99025AZD 25291.92488707 .00005482 00000-0 23522-2 0 9992

TLE line 2: 2 30915 98.9456 7.0935 0051197 325.4003 34.3847 14.24479777957322

Live tracking on map

Real-time ground track for satellite FENGYUN 1C DEB.

In-orbit conjunctions

A list of the most updated potential collisions computed for object FENGYUN 1C DEB.

Target Orbit TCA Probability of collision Miss distance Type
FENGYUN 1C DEB SSO 2025-08-11 21:35:11 0.0001024331 256.0 (m) DEBRIS
COSMOS 1110 LEO 2025-03-26 13:24:07 0.0002446534 203.0 (m) PAYLOAD
CZ-6A DEB LEO 2025-03-05 16:25:36 0.0006167548 362.0 (m) DEBRIS
CZ-6A DEB LEO 2025-02-13 19:17:48 0.0001001062 943.0 (m) DEBRIS
CZ-6A DEB LEO 2025-01-11 20:51:39 0.0001555406 173.0 (m) DEBRIS

Associated space launch

Chinese polar orbiting meteorological satellite

FENGYUN 1C DEB was lifted into orbit during the mission ‘Long March 4B | Feng Yun 1C’, on board a Long March 4B space rocket.

The launch took place on May 10, 1999, 1:33 a.m. from Launch Complex 7.

For more information about the launch, click the button.

Launch to space Long March 4B | Feng Yun 1C
Long March 4B | Feng Yun 1C

Agency: N/A

Status: Launch Successful

Launch date: May 10, 1999, 1:33 a.m. UTC

Rocket: Long March 4B

Launch pad: Launch Complex 7

Location: Taiyuan Satellite Launch Center, People's Republic of China

...

Latest news about this satellite

There are no fresh news available about this satellite. Check back as we update our databases every day.


Newsletter sign-up

Weekly statistics, charts and insights to help you stay on top of the space industry.